TimeCST,TemperatureF,Dew PointF,Humidity,Sea Level PressureIn,VisibilityMPH,Wind Direction,Wind SpeedMPH,Gust SpeedMPH,PrecipitationIn,Events,Conditions,WindDirDegrees,DateUTC
12:15 AM,18.3,9.0,67,30.49,10.0,Calm,Calm,-,N/A,,Clear,0,2012-11-16 06:15:00
12:35 AM,20.7,11.7,68,30.49,10.0,NNW,3.5,-,N/A,,Clear,340,2012-11-16 06:35:00
12:55 AM,22.6,12.9,66,30.49,10.0,NNW,4.6,-,N/A,,Clear,340,2012-11-16 06:55:00
1:15 AM,21.4,12.9,70,30.49,10.0,NNE,3.5,-,N/A,,Clear,20,2012-11-16 07:15:00
1:35 AM,20.1,11.8,70,30.49,10.0,Calm,Calm,-,N/A,,Clear,0,2012-11-16 07:35:00
1:55 AM,15.8,9.9,77,30.49,10.0,WSW,3.5,-,N/A,,Clear,240,2012-11-16 07:55:00
2:15 AM,15.3,10.0,80,30.49,10.0,South,3.5,-,N/A,,Clear,190,2012-11-16 08:15:00
2:35 AM,15.4,11.1,83,30.49,10.0,SSW,3.5,-,N/A,,Clear,210,2012-11-16 08:35:00
2:55 AM,16.0,11.3,82,30.49,10.0,Calm,Calm,-,N/A,,Clear,0,2012-11-16 08:55:00
3:15 AM,15.3,11.1,84,30.49,10.0,Calm,Calm,-,N/A,,Clear,0,2012-11-16 09:15:00
3:35 AM,15.3,10.9,83,30.48,10.0,WSW,3.5,-,N/A,,Clear,250,2012-11-16 09:35:00
3:55 AM,15.4,9.9,79,30.49,10.0,Calm,Calm,-,N/A,,Clear,0,2012-11-16 09:55:00
4:15 AM,15.6,10.0,79,30.48,10.0,Calm,Calm,-,N/A,,Clear,0,2012-11-16 10:15:00
4:35 AM,15.1,10.8,83,30.49,10.0,WSW,3.5,-,N/A,,Clear,240,2012-11-16 10:35:00
4:55 AM,14.7,9.3,79,30.49,10.0,SSW,3.5,-,N/A,,Clear,200,2012-11-16 10:55:00
5:15 AM,13.3,9.3,84,30.49,10.0,SW,3.5,-,N/A,,Clear,220,2012-11-16 11:15:00
5:35 AM,14.2,10.0,84,30.49,10.0,SW,3.5,-,N/A,,Clear,220,2012-11-16 11:35:00
5:55 AM,13.5,9.5,84,30.49,10.0,Calm,Calm,-,N/A,,Clear,0,2012-11-16 11:55:00
6:15 AM,14.4,10.4,84,30.49,10.0,Calm,Calm,-,N/A,,Clear,0,2012-11-16 12:15:00
6:35 AM,12.7,8.8,84,30.50,10.0,WSW,3.5,-,N/A,,Clear,240,2012-11-16 12:35:00
6:55 AM,14.5,9.7,81,30.50,10.0,Calm,Calm,-,N/A,,Clear,0,2012-11-16 12:55:00
7:15 AM,14.4,10.4,84,30.50,10.0,SSW,3.5,-,N/A,,Clear,210,2012-11-16 13:15:00
7:35 AM,12.0,8.6,86,30.51,10.0,Calm,Calm,-,N/A,,Clear,0,2012-11-16 13:35:00
7:55 AM,15.4,11.1,83,30.51,10.0,Calm,Calm,-,N/A,,Clear,0,2012-11-16 13:55:00
8:15 AM,18.3,13.6,82,30.51,10.0,Calm,Calm,-,N/A,,Clear,0,2012-11-16 14:15:00
8:35 AM,20.3,14.4,78,30.51,10.0,Calm,Calm,-,N/A,,Clear,0,2012-11-16 14:35:00
8:55 AM,22.8,16.0,75,30.51,10.0,Calm,Calm,-,N/A,,Clear,0,2012-11-16 14:55:00
9:15 AM,25.2,16.7,70,30.51,10.0,Calm,Calm,-,N/A,,Clear,0,2012-11-16 15:15:00
9:35 AM,27.3,17.4,66,30.51,10.0,Calm,Calm,-,N/A,,Clear,0,2012-11-16 15:35:00
9:55 AM,29.3,18.1,63,30.52,10.0,Calm,Calm,-,N/A,,Clear,0,2012-11-16 15:55:00
10:15 AM,31.3,19.2,61,30.51,10.0,Calm,Calm,-,N/A,,Clear,0,2012-11-16 16:15:00
10:35 AM,33.1,20.3,59,30.51,10.0,SE,3.5,-,N/A,,Clear,140,2012-11-16 16:35:00
10:55 AM,33.4,20.1,58,30.50,10.0,Calm,Calm,-,N/A,,Clear,0,2012-11-16 16:55:00
11:15 AM,35.6,20.8,55,30.50,10.0,SE,3.5,-,N/A,,Clear,130,2012-11-16 17:15:00
11:35 AM,35.8,21.0,55,30.49,10.0,Calm,Calm,-,N/A,,Clear,0,2012-11-16 17:35:00
11:55 AM,36.9,21.0,53,30.49,10.0,Calm,Calm,-,N/A,,Clear,0,2012-11-16 17:55:00
12:15 PM,36.7,21.0,53,30.49,10.0,Calm,Calm,-,N/A,,Clear,0,2012-11-16 18:15:00
12:35 PM,37.4,22.1,54,30.48,10.0,NNE,5.8,-,N/A,,Clear,30,2012-11-16 18:35:00
12:55 PM,37.6,22.1,54,30.47,10.0,NNE,6.9,-,N/A,,Clear,20,2012-11-16 18:55:00
1:15 PM,37.9,22.6,54,30.46,10.0,ENE,5.8,-,N/A,,Clear,60,2012-11-16 19:15:00
1:35 PM,37.9,22.8,55,30.46,10.0,ENE,4.6,-,N/A,,Clear,60,2012-11-16 19:35:00
1:55 PM,37.6,23.4,57,30.45,10.0,East,5.8,-,N/A,,Clear,100,2012-11-16 19:55:00
2:15 PM,37.4,23.5,57,30.43,10.0,East,8.1,-,N/A,,Clear,80,2012-11-16 20:15:00
2:35 PM,36.9,24.6,61,30.42,10.0,East,8.1,-,N/A,,Clear,90,2012-11-16 20:35:00
2:55 PM,36.9,25.3,63,30.41,10.0,East,6.9,-,N/A,,Clear,80,2012-11-16 20:55:00
3:15 PM,36.5,25.3,64,30.39,10.0,East,6.9,-,N/A,,Clear,90,2012-11-16 21:15:00
3:35 PM,35.6,25.9,68,30.39,10.0,East,8.1,-,N/A,,Clear,80,2012-11-16 21:35:00
3:55 PM,35.1,26.1,70,30.40,10.0,ENE,3.5,-,N/A,,Clear,60,2012-11-16 21:55:00
4:15 PM,34.3,26.4,73,30.39,10.0,East,8.1,-,N/A,,Clear,90,2012-11-16 22:15:00
4:35 PM,33.8,26.6,75,30.39,10.0,NE,4.6,-,N/A,,Clear,50,2012-11-16 22:35:00
4:55 PM,32.9,26.6,78,30.39,10.0,East,8.1,-,N/A,,Clear,80,2012-11-16 22:55:00
5:15 PM,32.9,27.1,79,30.39,10.0,ENE,4.6,-,N/A,,Clear,70,2012-11-16 23:15:00
5:35 PM,32.2,27.5,83,30.39,10.0,ENE,4.6,-,N/A,,Clear,60,2012-11-16 23:35:00
5:55 PM,32.2,27.7,83,30.38,10.0,East,4.6,-,N/A,,Clear,90,2012-11-16 23:55:00
6:15 PM,30.6,27.1,87,30.38,10.0,Calm,Calm,-,N/A,,Clear,0,2012-11-17 00:15:00
6:35 PM,30.0,26.2,86,30.37,10.0,Calm,Calm,-,N/A,,Clear,0,2012-11-17 00:35:00
6:55 PM,27.1,25.2,92,30.36,10.0,ESE,3.5,-,N/A,,Clear,110,2012-11-17 00:55:00
7:15 PM,27.0,25.5,94,30.36,10.0,Calm,Calm,-,N/A,,Clear,0,2012-11-17 01:15:00
7:55 PM,23.9,21.9,92,30.36,10.0,Calm,Calm,-,N/A,,Clear,0,2012-11-17 01:55:00
8:15 PM,22.6,21.4,95,30.36,10.0,Calm,Calm,-,N/A,,Clear,0,2012-11-17 02:15:00
8:35 PM,21.4,20.5,96,30.35,10.0,Calm,Calm,-,N/A,,Clear,0,2012-11-17 02:35:00
8:55 PM,21.4,21.2,99,30.36,10.0,Calm,Calm,-,N/A,,Clear,0,2012-11-17 02:55:00
9:15 PM,18.1,16.0,91,30.35,10.0,Calm,Calm,-,N/A,,Clear,0,2012-11-17 03:15:00
9:55 PM,19.8,18.1,93,30.34,10.0,Calm,Calm,-,N/A,,Clear,0,2012-11-17 03:55:00
10:15 PM,18.7,17.4,95,30.34,10.0,East,3.5,-,N/A,,Clear,100,2012-11-17 04:15:00
10:35 PM,19.8,18.5,95,30.34,10.0,Calm,Calm,-,N/A,,Scattered Clouds,0,2012-11-17 04:35:00
10:55 PM,20.5,19.2,95,30.34,10.0,Calm,Calm,-,N/A,,Mostly Cloudy,0,2012-11-17 04:55:00
11:15 PM,23.2,18.7,83,30.34,10.0,Calm,Calm,-,N/A,,Overcast,0,2012-11-17 05:15:00
11:35 PM,25.7,20.3,80,30.34,10.0,Calm,Calm,-,N/A,,Overcast,0,2012-11-17 05:35:00
11:55 PM,25.0,19.6,80,30.34,10.0,Calm,Calm,-,N/A,,Scattered Clouds,0,2012-11-17 05:55:00